This is the latest recevied weather packets stored in our database for station/object KD7JB. If no packets are shown the sender has not sent any weather packets the latest 10 day(s).
| Time | Temp. | Humidity | Pressure | Rain* | Wind** | Luminosity | Snow |
|---|---|---|---|---|---|---|---|
| 1778003282 | 17.22° C | 47% | 1175.5 hPa | 0 mm | - | 656 W/m² | - |
| 1778002980 | 17.22° C | 46% | 1175.5 hPa | 0 mm | - | 648 W/m² | - |
| 1778002675 | 17.22° C | 47% | 1175.7 hPa | 0 mm | - | 639 W/m² | - |
| 1778002372 | 16.67° C | 49% | 1175.6 hPa | 0 mm | - | 631 W/m² | - |
| 1778002069 | 17.22° C | 47% | 1175.6 hPa | 0 mm | - | 620 W/m² | - |
| 1778001766 | 17.22° C | 44% | 1175.6 hPa | 0 mm | - | 611 W/m² | - |
| 1778001466 | 17.22° C | 46% | 1175.5 hPa | 0 mm | - | 602 W/m² | - |
| 1778001163 | 16.67° C | 48% | 1175.5 hPa | 0 mm | - | 590 W/m² | - |
| 1778000860 | 16.67° C | 50% | 1175.5 hPa | 0 mm | - | 580 W/m² | - |
| 1778000558 | 16.11° C | 50% | 1175.7 hPa | 0 mm | - | 568 W/m² | - |
| 1777999954 | 16.11° C | 51% | 1175.6 hPa | 0 mm | - | 546 W/m² | - |
| 1777999650 | 16.11° C | 50% | 1175.4 hPa | 0 mm | - | 535 W/m² | - |
| 1777999347 | 15.56° C | 49% | 1175.5 hPa | 0 mm | - | 522 W/m² | - |
| 1777999045 | 15.56° C | 50% | 1175.4 hPa | 0 mm | - | 510 W/m² | - |
| 1777998744 | 15.56° C | 49% | 1175.3 hPa | 0 mm | - | 498 W/m² | - |
| 1777998441 | 15.56° C | 51% | 1175.4 hPa | 0 mm | - | 485 W/m² | - |
| 1777998138 | 15.56° C | 49% | 1175.4 hPa | 0 mm | - | 471 W/m² | - |
| 1777997834 | 16.11° C | 49% | 1175.4 hPa | 0 mm | - | 459 W/m² | - |
| 1777997532 | 15.56° C | 47% | 1175.4 hPa | 0 mm | - | 446 W/m² | - |
| 1777997229 | 15.56° C | 47% | 1175.4 hPa | 0 mm | - | 433 W/m² | - |
| 1777996927 | 15.56° C | 46% | 1175.2 hPa | 0 mm | - | 422 W/m² | - |
| 1777996623 | 15.56° C | 46% | 1175.4 hPa | 0 mm | - | 408 W/m² | - |
| 1777996319 | 15.56° C | 46% | 1175.5 hPa | 0 mm | - | 396 W/m² | - |
| 1777996016 | 15° C | 47% | 1175.3 hPa | 0 mm | - | 382 W/m² | - |
| 1777995712 | 16.11° C | 45% | 1175.4 hPa | 0 mm | - | 367 W/m² | - |
* Rain latest hour (hover to see other rain measurements)
** Current wind speed in m/s (hover to see current wind gust speed)